Location: Bad Salzschlirf
(50.3750°N, 9.3000°E)
Time: 21:55:54
(UTC+01:00)

ISS - Pass Details

Date: 09 November 2019
Orbit: 412 x 421 km, 51.6° (Epoch: 15 November)

Event Time Altitude Azimuth Distance (km) Brightness Sun altitude
Exits shadow 05:46:48 33° 242° (WSW) 730 -3.0 -16.0°
Maximum altitude 05:47:32 38° 210° (SSW) 657 -3.0 -15.8°
Drops below altitude 10° 05:50:41 10° 140° (SE) 1,498 -0.3 -15.3°
Sets 05:52:51 0° 132° (SE) 2,358 1.0 -15.0°
